Weather History for K40J - June, 2013

Change the Weather History Date:

Saturday, June 22, 2013

  Actual Average (KCTY) Record (KCTY)
Temperature  
Mean Temperature 78 °F 80 °F  
Max Temperature 88 °F 91 °F 100 °F (1998)
Min Temperature 69 °F 70 °F 66 °F (2001)
Degree Days  
Heating Degree Days 0 0  
Month to date heating degree days 0  
Since 1 June heating degree days 0  
Since 1 July heating degree days 1306  
Cooling Degree Days 12 15  
Month to date cooling degree days 321  
Year to date cooling degree days 800  
Since 1 June cooling degree days 321  
Growing Degree Days 28 (Base 50)    
Moisture  
Dew Point 69 °F    
Average Humidity 80    
Maximum Humidity 100    
Minimum Humidity 55    
Precipitation  
Precipitation 0.08 in 0.19 in 1.60 in (2001)
Month to date precipitation 3.58  
Year to date precipitation 20.75  
Sea Level Pressure  
Sea Level Pressure 30.11 in    
Wind  
Wind Speed 3 mph (SSE)    
Max Wind Speed 13 mph    
Max Gust Speed -    
Visibility 9 miles    
Events Rain , Thunderstorm    
T = Trace of Precipitation, MM = Missing Value Source: NWS Daily Summary

Daily Weather History Graph

Daily Weather History Graph

Search for Another Location

Airport or City:

Trip Planner

Search our weather history database for the weather conditions in past years. The results will help you decide how hot, cold, wet, or windy it might be!

Date:

Astronomy

Jun. 22, 2013 Rise Set
Actual Time 6:33 AM EDT 8:38 PM EDT
Civil Twilight 6:06 AM EDT 9:06 PM EDT
Nautical Twilight 5:32 AM EDT 9:39 PM EDT
Astronomical Twilight 4:57 AM EDT 10:15 PM EDT
Moon 7:56 PM EDT (6/22) 5:41 AM EDT (6/22)
Length of Visible Light 15h 00m
Length of Day
14h 05m
Waxing Gibbous, 99% of the Moon is Illuminated
Jun 22
Waxing Gibbous
Jun 23
Full
Jun 30
Last Quarter
Jul 8
New
Jul 15
First Quarter

Hourly Weather History & Observations

Time (EDT) Temp. Heat Index Dew Point Humidity Pressure Visibility Wind Dir Wind Speed Gust Speed Precip Events Conditions
12:15 AM 69.8 °F - 68.0 °F 94% 30.12 in 10.0 mi Calm Calm - N/A   Clear
12:35 AM 69.8 °F - 68.0 °F 94% 30.12 in 10.0 mi Calm Calm - N/A   Clear
12:53 AM 72.0 °F - 68.0 °F 87% 30.10 in - Calm Calm - N/A   Unknown
12:55 AM 69.8 °F - 68.0 °F 94% 30.12 in 10.0 mi Calm Calm - N/A   Clear
1:15 AM 69.8 °F - 68.0 °F 94% 30.12 in 10.0 mi NE 3.5 mph - N/A   Clear
1:35 AM 69.8 °F - 69.8 °F 100% 30.12 in 10.0 mi East 4.6 mph - N/A   Mostly Cloudy
1:53 AM 73.0 °F - 69.1 °F 87% 30.10 in - Variable 4.6 mph - 0.02 in   Unknown
1:55 AM 69.8 °F - 69.8 °F 100% 30.12 in 5.0 mi ESE 5.8 mph - N/A   Scattered Clouds
2:15 AM 69.8 °F - 69.8 °F 100% 30.11 in 10.0 mi Calm Calm - N/A   Clear
2:35 AM 69.8 °F - 68.0 °F 94% 30.11 in 5.0 mi Calm Calm - N/A   Clear
2:53 AM 72.0 °F - 69.1 °F 91% 30.10 in - East 3.5 mph - 0.01 in   Unknown
2:55 AM 69.8 °F - 68.0 °F 94% 30.11 in 7.0 mi East 4.6 mph - N/A   Scattered Clouds
3:15 AM 69.8 °F - 68.0 °F 94% 30.11 in 7.0 mi Calm Calm - N/A   Mostly Cloudy
3:35 AM 69.8 °F - 68.0 °F 94% 30.10 in 5.0 mi Calm Calm - N/A   Scattered Clouds
3:53 AM 72.0 °F - 69.1 °F 91% 30.08 in - Calm Calm - N/A   Unknown
3:55 AM 69.8 °F - 68.0 °F 94% 30.09 in 2.5 mi Calm Calm - N/A   Clear
4:15 AM 69.8 °F - 68.0 °F 94% 30.09 in 5.0 mi ESE 5.8 mph - N/A   Clear
4:35 AM 69.8 °F - 68.0 °F 94% 30.09 in 5.0 mi Calm Calm - N/A   Clear
4:53 AM 71.1 °F - 68.0 °F 90% 30.07 in - Calm Calm - 0.02 in   Unknown
4:55 AM 69.8 °F - 68.0 °F 94% 30.09 in 5.0 mi Calm Calm - N/A Thunderstorm Clear
5:15 AM 69.8 °F - 68.0 °F 94% 30.09 in 7.0 mi Calm Calm - N/A Thunderstorm Clear
5:35 AM 69.8 °F - 68.0 °F 94% 30.09 in 5.0 mi Calm Calm - N/A   Clear
5:53 AM 71.1 °F - 68.0 °F 90% 30.07 in - ENE 3.5 mph - N/A   Unknown
5:55 AM 69.8 °F - 68.0 °F 94% 30.09 in 7.0 mi Calm Calm - N/A   Clear
6:15 AM 69.8 °F - 68.0 °F 94% 30.10 in 7.0 mi Calm Calm - N/A   Clear
6:35 AM 69.8 °F - 68.0 °F 94% 30.10 in 10.0 mi Calm Calm - N/A   Clear
6:53 AM 71.1 °F - 68.0 °F 90% 30.09 in - Calm Calm - 0.01 in   Unknown
6:55 AM 69.8 °F - 68.0 °F 94% 30.11 in 7.0 mi Calm Calm - N/A   Clear
7:15 AM 69.8 °F - 68.0 °F 94% 30.12 in 5.0 mi ENE 3.5 mph - N/A   Scattered Clouds
7:35 AM 69.8 °F - 68.0 °F 94% 30.12 in 3.0 mi Calm Calm - N/A   Mostly Cloudy
7:53 AM 72.0 °F - 69.1 °F 91% 30.12 in - Calm Calm - N/A   Unknown
7:55 AM 69.8 °F - 68.0 °F 94% 30.13 in 5.0 mi Calm Calm - N/A   Scattered Clouds
8:15 AM 69.8 °F - 69.8 °F 100% 30.13 in 7.0 mi East 3.5 mph - N/A   Scattered Clouds
8:35 AM 71.6 °F - 69.8 °F 94% 30.13 in 7.0 mi East 3.5 mph - N/A   Clear
8:53 AM 75.0 °F - 70.0 °F 84% 30.13 in - Calm Calm - N/A   Unknown
8:55 AM 71.6 °F - 69.8 °F 94% 30.14 in 7.0 mi Calm Calm - N/A   Clear
9:15 AM 73.4 °F - 71.6 °F 94% 30.15 in 10.0 mi East 3.5 mph - N/A   Scattered Clouds
9:35 AM 73.4 °F - 71.6 °F 94% 30.14 in 10.0 mi ESE 4.6 mph - N/A   Scattered Clouds
9:53 AM 80.1 °F 83.8 °F 72.0 °F 76% 30.12 in - East 5.8 mph - N/A   Unknown
9:55 AM 77.0 °F - 71.6 °F 83% 30.14 in 10.0 mi East 4.6 mph - N/A   Scattered Clouds
10:15 AM 78.8 °F - 69.8 °F 74% 30.14 in 10.0 mi ESE 5.8 mph - N/A   Scattered Clouds
10:35 AM 78.8 °F - 69.8 °F 74% 30.14 in 10.0 mi East 4.6 mph - N/A   Scattered Clouds
10:53 AM 82.0 °F 85.9 °F 70.0 °F 67% 30.13 in - ESE 6.9 mph - N/A   Unknown
10:55 AM 80.6 °F 83.9 °F 69.8 °F 70% 30.14 in 10.0 mi East 3.5 mph - N/A   Scattered Clouds
11:15 AM 80.6 °F 83.9 °F 69.8 °F 70% 30.15 in 10.0 mi Calm Calm - N/A   Scattered Clouds
11:35 AM 80.6 °F 83.9 °F 69.8 °F 70% 30.15 in 10.0 mi SSE 3.5 mph - N/A   Scattered Clouds
11:53 AM 84.0 °F 88.4 °F 70.0 °F 63% 30.14 in - ESE 5.8 mph - N/A   Unknown
11:55 AM 80.6 °F 83.9 °F 69.8 °F 70% 30.15 in 10.0 mi ESE 4.6 mph - N/A   Scattered Clouds
12:15 PM 82.4 °F 86.3 °F 69.8 °F 66% 30.15 in 10.0 mi SSE 3.5 mph - N/A   Mostly Cloudy
12:35 PM 82.4 °F 86.3 °F 69.8 °F 66% 30.14 in 10.0 mi SSE 3.5 mph - N/A   Mostly Cloudy
12:53 PM 84.9 °F 88.8 °F 69.1 °F 59% 30.12 in - Calm Calm - N/A   Unknown
12:55 PM 82.4 °F 85.4 °F 68.0 °F 62% 30.14 in 10.0 mi Calm Calm - N/A   Mostly Cloudy
1:15 PM 82.4 °F 86.3 °F 69.8 °F 66% 30.14 in 10.0 mi West 4.6 mph - N/A   Overcast
1:35 PM 82.4 °F 86.3 °F 69.8 °F 66% 30.13 in 10.0 mi NNW 4.6 mph - N/A   Mostly Cloudy
1:53 PM 86.0 °F 91.5 °F 71.1 °F 61% 30.12 in - North 5.8 mph - N/A   Unknown
1:55 PM 82.4 °F 86.3 °F 69.8 °F 66% 30.13 in 10.0 mi North 3.5 mph - N/A Thunderstorm Thunderstorm
2:15 PM 80.6 °F 83.9 °F 69.8 °F 70% 30.13 in 10.0 mi SSW 12.7 mph - N/A   Overcast
2:35 PM 77.0 °F - 71.6 °F 83% 30.13 in 10.0 mi WNW 6.9 mph - N/A Rain , Thunderstorm Light Thunderstorms and Rain
2:53 PM 79.0 °F - 73.0 °F 82% 30.11 in - West 5.8 mph - N/A   Unknown
2:55 PM 77.0 °F - 71.6 °F 83% 30.12 in 10.0 mi WNW 5.8 mph - N/A Thunderstorm Scattered Clouds
3:15 PM 80.6 °F 84.6 °F 71.6 °F 74% 30.11 in 10.0 mi West 3.5 mph - N/A   Clear
3:35 PM 84.2 °F 87.3 °F 68.0 °F 58% 30.11 in 10.0 mi SW 3.5 mph - N/A   Scattered Clouds
3:53 PM 86.0 °F 91.5 °F 71.1 °F 61% 30.09 in - SW 9.2 mph - N/A   Unknown
3:55 PM 84.2 °F 88.4 °F 69.8 °F 62% 30.10 in 10.0 mi WSW 8.1 mph - N/A   Mostly Cloudy
4:15 PM 86.0 °F 89.4 °F 68.0 °F 55% 30.10 in 10.0 mi SW 11.5 mph - N/A Thunderstorm Mostly Cloudy
4:35 PM 86.0 °F 89.4 °F 68.0 °F 55% 30.10 in 10.0 mi SW 9.2 mph - N/A   Scattered Clouds
4:53 PM 84.9 °F 88.8 °F 69.1 °F 59% 30.08 in - SW 8.1 mph - N/A   Unknown
4:55 PM 84.2 °F 88.4 °F 69.8 °F 62% 30.09 in 10.0 mi SW 6.9 mph - N/A Thunderstorm Scattered Clouds
5:15 PM 82.4 °F 86.3 °F 69.8 °F 66% 30.09 in 10.0 mi SW 9.2 mph - N/A   Scattered Clouds
5:35 PM 82.4 °F 86.3 °F 69.8 °F 66% 30.07 in 10.0 mi SW 9.2 mph - N/A   Scattered Clouds
5:53 PM 84.0 °F 89.0 °F 71.1 °F 65% 30.06 in - SSW 8.1 mph - N/A   Unknown
5:55 PM 82.4 °F 86.3 °F 69.8 °F 66% 30.07 in 10.0 mi SSW 6.9 mph - N/A   Clear
6:15 PM 82.4 °F 86.3 °F 69.8 °F 66% 30.08 in 10.0 mi WSW 5.8 mph - N/A   Scattered Clouds
6:35 PM 82.4 °F 86.3 °F 69.8 °F 66% 30.07 in 10.0 mi WSW 5.8 mph - N/A   Mostly Cloudy
6:53 PM 84.0 °F 88.4 °F 70.0 °F 63% 30.05 in - SW 8.1 mph - N/A   Unknown
6:55 PM 82.4 °F 86.3 °F 69.8 °F 66% 30.07 in 10.0 mi SSW 6.9 mph - N/A   Scattered Clouds
7:15 PM 82.4 °F 86.3 °F 69.8 °F 66% 30.07 in 10.0 mi SSW 5.8 mph - N/A   Clear
7:35 PM 82.4 °F 86.3 °F 69.8 °F 66% 30.08 in 10.0 mi SSW 5.8 mph - N/A   Clear
7:53 PM 82.0 °F 85.9 °F 70.0 °F 67% 30.07 in - SSW 4.6 mph - N/A   Unknown
7:55 PM 80.6 °F 83.9 °F 69.8 °F 70% 30.08 in 10.0 mi SW 4.6 mph - N/A   Clear
8:15 PM 78.8 °F - 69.8 °F 74% 30.09 in 10.0 mi South 3.5 mph - N/A   Clear
8:35 PM 78.8 °F - 69.8 °F 74% 30.10 in 10.0 mi Calm Calm - N/A   Clear
8:53 PM 79.0 °F - 71.1 °F 77% 30.09 in - Calm Calm - 0.02 in   Unknown
8:55 PM 77.0 °F - 69.8 °F 78% 30.10 in 5.0 mi Calm Calm - N/A Thunderstorm Unknown
9:15 PM 77.0 °F - 69.8 °F 78% 30.10 in 4.0 mi Calm Calm - N/A   Haze
9:35 PM 75.2 °F - 69.8 °F 83% 30.10 in 10.0 mi Calm Calm - N/A   Clear
9:53 PM 77.0 °F - 71.1 °F 82% 30.09 in - NE 4.6 mph - N/A   Unknown
9:55 PM 75.2 °F - 69.8 °F 83% 30.10 in 10.0 mi NE 3.5 mph - N/A   Clear
10:15 PM 73.4 °F - 69.8 °F 88% 30.10 in 10.0 mi East 3.5 mph - N/A   Clear
10:35 PM 73.4 °F - 69.8 °F 88% 30.10 in 10.0 mi East 4.6 mph - N/A   Clear
10:53 PM 75.0 °F - 70.0 °F 84% 30.08 in - Calm Calm - N/A   Unknown
10:55 PM 73.4 °F - 69.8 °F 88% 30.10 in 10.0 mi SE 4.6 mph - N/A   Clear
11:15 PM 71.6 °F - 69.8 °F 94% 30.10 in 10.0 mi SE 3.5 mph - N/A   Clear
11:35 PM 71.6 °F - 69.8 °F 94% 30.11 in 10.0 mi Calm Calm - N/A   Clear
11:53 PM 75.0 °F - 70.0 °F 84% 30.10 in - Calm Calm - N/A   Unknown
11:55 PM 71.6 °F - 69.8 °F 94% 30.11 in 10.0 mi Calm Calm - N/A   Clear